When you browse on this site, cookies collect data to enhance your experience and personalize the content and advertising you see.
Visit our Privacy Policy to learn more. By continuing to use the site, you agree to this use of cookies and data.
  • In France
  • List of Countries
  • For 7 days
  • Water Temperature
  • Satellite Maps
  • Weather Map
  • Weather Widgets
  • user-avatar
    Login

    Hourly Weather Marfinka

    Today, 24 February, Sunday

    Time Temperature Precipitation Wind Pressure Humidity
    00:00 -16°C° 0 mm 3 mps 759 mmHg 91%
    01:00 -16°C° 0 mm 3 mps 759 mmHg 91%
    02:00 -16°C° 0 mm 3 mps 759 mmHg 91%
    03:00 -16°C° 0 mm 3 mps 759 mmHg 90%
    04:00 -16°C° 0 mm 3 mps 759 mmHg 91%
    05:00 -16°C° 0 mm 3 mps 758 mmHg 91%
    06:00 -16°C° 0 mm 3 mps 758 mmHg 91%
    07:00 -15°C° 0 mm 3 mps 758 mmHg 93%
    08:00 -14°C° 0 mm 3 mps 758 mmHg 94%
    09:00 -13°C° 0 mm 3 mps 758 mmHg 95%
    10:00 -12°C° 0 mm 3 mps 757 mmHg 94%
    11:00 -9°C° 0 mm 3 mps 757 mmHg 94%
    12:00 -8°C° 0 mm 3 mps 757 mmHg 94%
    13:00 -7°C° 0 mm 3 mps 757 mmHg 93%
    14:00 -7°C° 0 mm 3 mps 757 mmHg 92%
    15:00 -6°C° 0 mm 3 mps 756 mmHg 91%
    16:00 -6°C° 0 mm 3 mps 756 mmHg 92%
    17:00 -6°C° 0 mm 3 mps 756 mmHg 93%
    18:00 -5°C° 0 mm 2 mps 756 mmHg 95%
    19:00 -5°C° 0 mm 2 mps 755 mmHg 95%
    20:00 -5°C° 0 mm 2 mps 755 mmHg 96%
    21:00 -5°C° 0 mm 2 mps 755 mmHg 96%
    22:00 -5°C° 0.1 mm 3 mps 754 mmHg 96%
    23:00 -5°C° 0.1 mm 3 mps 754 mmHg 96%

    Tomorrow, 25 February, Monday

    Time Temperature Precipitation Wind Pressure Humidity
    00:00 -4°C° 0.1 mm 3 mps 753 mmHg 97%
    01:00 -2°C° 0.1 mm 3 mps 752 mmHg 96%
    02:00 -3°C° 0.1 mm 4 mps 752 mmHg 96%
    03:00 -2°C° 0.1 mm 4 mps 751 mmHg 96%
    04:00 -2°C° 0.1 mm 4 mps 750 mmHg 95%
    05:00 -2°C° 0.1 mm 5 mps 749 mmHg 94%
    06:00 -2°C° 0.1 mm 5 mps 749 mmHg 93%
    07:00 -2°C° 0.4 mm 5 mps 748 mmHg 93%
    08:00 -2°C° 0.4 mm 5 mps 747 mmHg 93%
    09:00 -2°C° 0.4 mm 5 mps 746 mmHg 93%
    10:00 -2°C° 0.3 mm 5 mps 746 mmHg 95%
    11:00 -1°C° 0.3 mm 5 mps 745 mmHg 97%
    12:00 -1°C° 0.3 mm 4 mps 745 mmHg 99%
    13:00 -1°C° 0.2 mm 4 mps 744 mmHg 99%
    14:00 -1°C° 0.2 mm 4 mps 744 mmHg 99%
    15:00 -1°C° 0.2 mm 4 mps 744 mmHg 99%
    16:00 -1°C° 0 mm 4 mps 743 mmHg 97%
    17:00 -2°C° 0 mm 4 mps 743 mmHg 94%
    18:00 -2°C° 0 mm 3 mps 743 mmHg 92%
    19:00 -1°C° 0.1 mm 3 mps 743 mmHg 93%
    20:00 -1°C° 0.1 mm 3 mps 743 mmHg 94%
    21:00 -1°C° 0.1 mm 3 mps 743 mmHg 95%
    22:00 -1°C° 0.1 mm 3 mps 743 mmHg 95%
    23:00 -1°C° 0.1 mm 3 mps 742 mmHg 96%

    Day after tomorrow, 26 February, Tuesday

    Time Temperature Precipitation Wind Pressure Humidity
    00:00 -2°C° 0.1 mm 3 mps 742 mmHg 96%
    01:00 -2°C° 0 mm 3 mps 742 mmHg 96%
    02:00 -4°C° 0 mm 3 mps 742 mmHg 96%
    03:00 -4°C° 0 mm 3 mps 742 mmHg 96%
    04:00 -4°C° 0.2 mm 3 mps 741 mmHg 96%
    05:00 -4°C° 0.2 mm 3 mps 741 mmHg 96%
    06:00 -4°C° 0.2 mm 3 mps 741 mmHg 97%
    07:00 -2°C° 0.1 mm 3 mps 741 mmHg 96%
    08:00 -2°C° 0.1 mm 3 mps 741 mmHg 96%
    09:00 -2°C° 0.1 mm 3 mps 741 mmHg 96%
    10:00 -1°C° 0.1 mm 3 mps 741 mmHg 96%
    11:00 -1°C° 0.1 mm 3 mps 740 mmHg 97%
    12:00 -1°C° 0.1 mm 3 mps 740 mmHg 98%
    13:00 -1°C° 0.1 mm 3 mps 740 mmHg 98%
    14:00 0°C° 0.1 mm 3 mps 740 mmHg 97%
    15:00 0°C° 0.1 mm 3 mps 740 mmHg 97%
    16:00 -1°C° 0.1 mm 3 mps 740 mmHg 95%
    17:00 -1°C° 0.1 mm 3 mps 741 mmHg 92%
    18:00 -2°C° 0.1 mm 3 mps 741 mmHg 90%
    19:00 -2°C° 0 mm 3 mps 741 mmHg 91%
    20:00 -2°C° 0 mm 3 mps 742 mmHg 92%
    21:00 -4°C° 0 mm 3 mps 742 mmHg 93%
    22:00 -3°C° 0.1 mm 4 mps 742 mmHg 93%
    23:00 -3°C° 0.1 mm 4 mps 743 mmHg 93%

    27 February, Wednesday

    Time Temperature Precipitation Wind Pressure Humidity
    00:00 -2°C° 0.1 mm 5 mps 743 mmHg 93%
    01:00 -4°C° 0.1 mm 5 mps 744 mmHg 92%
    02:00 -4°C° 0.1 mm 6 mps 744 mmHg 91%
    03:00 -4°C° 0.1 mm 6 mps 744 mmHg 90%
    04:00 -5°C° 0.1 mm 6 mps 745 mmHg 89%
    05:00 -6°C° 0.1 mm 6 mps 745 mmHg 89%
    06:00 -8°C° 0.1 mm 6 mps 746 mmHg 89%
    07:00 -9°C° 0 mm 6 mps 747 mmHg 88%
    08:00 -8°C° 0 mm 5 mps 747 mmHg 88%
    09:00 -10°C° 0 mm 5 mps 748 mmHg 88%
    10:00 -10°C° 0 mm 5 mps 748 mmHg 88%
    11:00 -11°C° 0 mm 5 mps 748 mmHg 88%
    12:00 -10°C° 0 mm 4 mps 748 mmHg 88%
    13:00 -10°C° 0 mm 4 mps 748 mmHg 88%
    14:00 -10°C° 0 mm 4 mps 748 mmHg 88%
    15:00 -10°C° 0 mm 4 mps 748 mmHg 88%
    16:00 -9°C° 0 mm 3 mps 748 mmHg 89%
    17:00 -10°C° 0 mm 3 mps 748 mmHg 89%
    18:00 -9°C° 0 mm 2 mps 748 mmHg 90%
    19:00 -10°C° 0 mm 2 mps 747 mmHg 91%
    20:00 -12°C° 0 mm 2 mps 747 mmHg 92%
    21:00 -12°C° 0 mm 2 mps 746 mmHg 93%
    22:00 -12°C° 0 mm 2 mps 746 mmHg 93%
    23:00 -12°C° 0 mm 3 mps 745 mmHg 93%

    28 February, Thursday

    Time Temperature Precipitation Wind Pressure Humidity
    00:00 -12°C° 0 mm 3 mps 744 mmHg 93%
    01:00 -10°C° 0 mm 3 mps 744 mmHg 93%
    02:00 -9°C° 0 mm 3 mps 743 mmHg 94%
    03:00 -9°C° 0 mm 3 mps 742 mmHg 94%
    04:00 -8°C° 0.1 mm 3 mps 742 mmHg 95%
    05:00 -8°C° 0.1 mm 3 mps 741 mmHg 95%
    06:00 -7°C° 0.1 mm 3 mps 741 mmHg 95%
    07:00 -6°C° 0 mm 3 mps 740 mmHg 95%
    08:00 -6°C° 0 mm 3 mps 740 mmHg 95%
    09:00 -5°C° 0 mm 3 mps 739 mmHg 95%
    10:00 -4°C° 0 mm 3 mps 739 mmHg 95%
    11:00 -2°C° 0 mm 3 mps 739 mmHg 94%
    12:00 -2°C° 0 mm 3 mps 738 mmHg 94%
    13:00 -1°C° 0 mm 3 mps 738 mmHg 92%
    14:00 -1°C° 0 mm 3 mps 737 mmHg 91%
    15:00 -1°C° 0 mm 3 mps 737 mmHg 89%
    16:00 -1°C° 0 mm 3 mps 737 mmHg 90%
    17:00 -2°C° 0 mm 3 mps 736 mmHg 92%
    18:00 -2°C° 0 mm 2 mps 736 mmHg 93%
    19:00 -3°C° 0 mm 2 mps 736 mmHg 93%
    20:00 -3°C° 0 mm 2 mps 735 mmHg 94%
    21:00 -4°C° 0 mm 2 mps 735 mmHg 95%
    22:00 -4°C° 0 mm 2 mps 735 mmHg 95%
    23:00 -2°C° 0 mm 1 mps 734 mmHg 95%

    1 March, Friday

    Time Temperature Precipitation Wind Pressure Humidity
    00:00 -2°C° 0 mm 1 mps 734 mmHg 95%
    01:00 -3°C° 0 mm 1 mps 734 mmHg 96%
    02:00 -3°C° 0 mm 1 mps 734 mmHg 96%
    03:00 -5°C° 0 mm 0 mps 733 mmHg 96%
    04:00 -5°C° 0 mm 0 mps 733 mmHg 96%
    05:00 -5°C° 0 mm 0 mps 733 mmHg 96%
    06:00 -5°C° 0 mm 0 mps 733 mmHg 96%
    07:00 -5°C° 0 mm 0 mps 734 mmHg 96%
    08:00 -4°C° 0 mm 0 mps 734 mmHg 95%
    09:00 -4°C° 0 mm 0 mps 734 mmHg 95%
    10:00 -2°C° 0 mm 1 mps 734 mmHg 95%
    11:00 -1°C° 0 mm 1 mps 734 mmHg 95%
    12:00 0°C° 0 mm 1 mps 735 mmHg 96%
    13:00 -2°C° 0 mm 2 mps 735 mmHg 95%
    14:00 -1°C° 0 mm 2 mps 735 mmHg 95%
    15:00 -1°C° 0 mm 2 mps 735 mmHg 94%
    16:00 -2°C° 0 mm 2 mps 736 mmHg 94%
    17:00 -2°C° 0 mm 2 mps 736 mmHg 94%
    18:00 -2°C° 0 mm 2 mps 737 mmHg 93%
    19:00 -3°C° 0 mm 2 mps 737 mmHg 94%
    20:00 -3°C° 0 mm 2 mps 738 mmHg 94%
    21:00 -4°C° 0 mm 2 mps 738 mmHg 95%
    22:00 -4°C° 0 mm 2 mps 738 mmHg 95%
    23:00 -4°C° 0 mm 2 mps 739 mmHg 96%
    Show more